Voltar ao catálogo

STARLINK-11530

AtivoComunicaçõesVLEO
NORAD 62562·PAYLOAD·🇺🇸 United States

Lançado Jan 10, 2025 de Cape Canaveral Space Force Station

Loading…

Próximas Passagens (próximas 24 horas)

TLE

AtualizadoSource: CelesTrak SupGP

Época: Sep 15, 2026, 02:22 UTC

1 62562C 25006J   26258.09909722  .00032363  00000+0  25115-3 0  2586
2 62562  43.0006  78.5784 0001639 275.1082 217.4194 15.70842571    18

Acompanhe STARLINK-11530 em tempo real com AllMySat

Download on the App Store